SCP
0 0 0 0 0 0 0 0 0 0 0 0 0 0 0 0 0 0 0 0 0 0 0 0 0 0 0 0 0 0 0 0 0 0 0 0 0 0
0 0 0 0 0 0 0 0 0 0 0 0 0 0 0 0 0 0 0 0 0 0 0 0 0 0 0 0 0 0 0 0 0 0 0 0 0 0
0 0 0 0 0 0 0 0 0 0 0 0 0 0 0 0 0 0 0 0 0 0 0 0 0 0 0 0 0 0 0 0 0 0 0 0 0 0
0 0 0 0 0 0 0 0 0 0 0 0 0 0 0 0 0 0 0 0 0 0 0 0 0 0 0 0 0 0 0 0 0 0 0 0 0 0
0 0 0 0 0 0 0 0 0 0 0 0 0 0 0 0 0 0 0 0 0 0 0 0 0 0 0 0 0 0 0 0 0 0 0 0 0 0
0 0 0 0 0 0 0 0 0 0 0 0 0 0 0 0 0 0 0 0 0 0 0 0 0 0 0 0 0 0 0 0 0 0 0 0 0 0
0 0 0 0 0 0 0 0 0 0 0 0 0 0 0 0 0 0 0 0 0 0 0 0 0 0 0 0 0 0 0 0 0 0 0 0 0 0
0 0 0 0 0 0 0 0 0 0 0 0 0 0 0 0 0 0 0 0 0 0 0 0 0 0 0 0 0 0 0 0 0 0 0 0 0 0
0 0 0 0 0 0 0 0 0 0 0 0 0 0 0 0 0 0 0 0 0 0 0 0 0 0 0 0 0 0 0 0 0 0 0 0 0 0
0 0 0 0 0 0 0 0 0 0 0 0 0 0 0 0 0 0 0 0 0 0 0 0 0 0 0 0 0 0 0 0 0 0 0 0 0 0
0 0 0 0 0 0 0 0 0 0 0 0 0 0 0 0 0 0 0 0 0 0 0 0 0 0 0 0 0 0 0 0 0 0 0 0 0 0
0 0 0 0 0 0 0 0 0 0 0 0 0 0 0 0 0 0 0 0 0 0 0 0 0 0 0 0 0 0 0 0 0 0 0 0 0 0
0 0 0 0 0 0 0 0 0 0 0 0 0 0 0 0 0 0 0 0 0 0 0 0 0 0 0 0 0 0 0 0 0 0 0 0 0 0
0 0 0 0 0 0 0 0 0 0 0 0 0 0 0 0 0 0 0 0 0 0 0 0 0 0 0 0 0 0 0 0 0 0 0 0 0 0
0 0 0 0 0 0 0 0 0 0 0 0 0 0 0 0 0 0 0 0 0 0 0 0 0 0 0 0 0 0 0 0 0 0 0 0 0 0
0 0 0 0 0 0 0 0 0 0 0 0 0 0 0 0 0 0 0 0 0 0 0 0 0 0 0 0 0 0 0 0 0 0 0 0 0 0
0 0 0 0 0 0 0 0 0 0 0 0 0 0 0 0 0 0 0 0 0 0 0 0 0 0 0 0 0 0 0 0 0 0 0 0 0 0
0 0 0 0 0 0 0 0 0 0 0 0 0 0 0 0 0 0 0 0 0 0 0 0 0 0 0 0 0 0 0 0 0 0 0 0 0 0
0 0 0 0 0 0 0 0 0 0 0 0 0 0 0 0 0 0 0 0 0 0 0 0 0 0 0 0 0 0 0 0 0 0 0 0 0 0
0 0 0 0 0 0 0 0 0 0 0 0 0 0 0 0 0 0 0 0 0 0 0 0 0 0 0 0 0 0 0 0 0 0 0 0 0 0
0 0 0 0 0 0 0 0 0 0 0 0 0 0 0 0 0 0 0 0 0 0 0 0 0 0 0 0 0 0 0 0 0 0 0 0 0 0
0 0 0 0 0 0 0 0 0 0 0 0 0 0 0 0 0 0 0 0 0 0 0 0 0 0 0 0 0 0 0 0 0 0 0 0 0 0
0 0 0 0 0 0 0 0 0 0 0 0 0 0 0 0 0 0 0 0 0 0 0 0 0 0 0 0 0 0 0 0 0 0 0 0 0 0
Wind_Speed
8 7 5 4 3 3 3 4 6 5 4 4 3 3 3 2 1 1 1 5 6 8 9 10 11 12 14 14 16 17 19 20 21 23 24 26 27 28
6 8 6 4 4 3 3 3 3 5 4 3 3 3 3 2 1 1 1 4 5 7 8 9 11 12 13 13 15 17 18 19 21 23 24 26 27 29
7 9 8 7 6 4 4 4 3 3 4 2 2 3 3 2 1 0 1 1 2 6 7 9 10 11 12 13 14 16 17 19 21 23 24 26 27 28
11 10 9 7 8 6 5 5 4 3 4 4 2 2 2 2 1 1 1 1 2 6 7 8 9 10 11 12 13 15 16 18 20 22 24 26 27 29
13 13 12 11 9 6 6 6 4 3 3 4 3 2 1 1 0 1 2 2 3 4 6 7 8 10 10 12 13 14 15 17 20 22 23 25 27 28
10 11 12 13 12 11 8 7 6 5 4 4 3 2 1 1 1 1 2 2 3 3 3 5 8 9 10 11 11 12 14 17 19 21 23 24 26 28
9 9 10 11 12 11 9 9 9 6 5 4 3 2 2 2 2 1 1 2 3 1 1 3 4 4 4 7 9 11 14 16 19 20 22 24 26 27
11 8 8 9 12 13 13 13 12 9 8 5 4 4 4 3 2 2 1 1 3 1 2 4 3 3 3 2 8 11 13 16 18 20 22 24 25 27
11 11 8 7 9 9 11 12 9 10 9 7 6 5 4 4 4 3 2 2 3 1 2 4 2 3 3 5 10 10 12 15 17 20 22 24 25 26
9 10 11 11 10 11 10 8 6 5 6 4 4 3 3 4 4 3 2 2 3 3 2 3 3 3 4 4 7 8 11 15 17 19 21 23 25 26
7 8 9 11 16 17 12 9 7 4 6 6 6 5 6 7 6 3 2 1 2 2 1 1 2 3 3 3 3 7 10 13 16 19 20 23 25 23
6 6 9 12 17 18 11 10 10 7 6 5 5 5 4 5 7 5 4 3 2 3 1 1 1 2 4 3 2 3 4 9 15 17 19 22 24 14
7 7 7 16 18 18 13 8 9 8 7 6 4 4 3 3 4 4 4 4 4 4 2 2 1 1 2 4 4 2 2 4 5 8 14 20 22 17
7 6 7 16 17 17 11 10 12 9 5 5 5 5 5 5 4 4 4 4 3 4 2 3 2 2 1 3 5 4 3 3 3 5 7 14 15 19
4 8 11 15 15 11 12 13 9 6 6 6 6 6 5 4 4 3 3 2 3 3 4 4 4 3 3 3 4 3 4 4 3 5 6 7 7 9
5 6 11 13 10 7 6 8 5 6 6 6 5 4 4 4 4 4 3 3 2 3 4 5 5 4 3 5 4 5 4 4 5 5 6 6 6 6
7 5 5 6 6 5 5 5 5 5 6 5 5 5 5 5 4 4 3 3 4 3 3 2 3 3 5 4 4 5 4 4 4 4 5 6 5 5
8 6 7 7 8 7 7 6 6 7 7 6 6 6 6 6 5 4 4 5 5 5 4 3 2 0 2 4 8 5 3 3 3 3 3 4 5 5
7 6 7 7 7 7 7 7 7 7 6 6 7 7 6 6 6 6 6 6 6 5 4 3 4 3 2 3 4 5 3 2 2 3 3 2 4 6
6 6 6 6 6 6 7 6 6 6 6 7 7 7 7 6 6 7 7 7 6 5 4 4 5 6 6 4 3 3 5 3 2 3 3 3 4 7
6 6 6 5 5 6 6 6 6 7 7 7 7 8 7 7 7 7 7 8 7 6 7 6 5 5 3 2 1 4 4 5 4 3 2 3 4 4
5 5 5 5 5 5 5 5 6 6 7 7 7 7 7 7 8 8 8 7 7 7 6 3 3 4 4 5 5 4 3 3 5 8 7 5 2 2
4 4 4 4 4 4 4 5 6 6 6 7 7 7 7 7 7 7 7 7 6 6 5 4 4 4 4 5 4 4 4 3 2 3 4 6 8 10
Wind_Direction
186 181 173 169 162 161 152 154 158 176 198 175 159 159 144 133 82 54 2 3 3 3 2 1 359 357 357 355 356 355 354 353 351 349 347 345 344 342
176 170 169 160 154 153 151 148 147 156 170 165 150 148 141 138 112 74 340 351 351 351 352 352 353 353 353 352 353 353 352 352 350 348 346 345 343 342
171 172 172 160 160 160 149 147 145 138 150 141 109 129 137 145 138 318 315 326 321 334 337 341 345 347 348 349 350 351 351 350 349 348 346 344 342 341
178 171 171 164 161 160 157 155 151 141 142 152 138 141 153 161 167 294 305 306 299 317 324 330 336 340 342 345 347 348 349 348 348 347 345 344 343 342
178 176 173 166 166 164 159 154 147 133 119 136 147 137 141 155 133 295 287 289 299 306 314 323 331 334 334 339 343 345 345 346 347 347 346 344 343 341
176 175 173 173 171 167 163 156 145 136 129 135 145 157 170 172 152 241 293 301 299 299 309 318 322 322 322 332 337 338 343 346 346 346 345 344 343 342
166 170 172 170 166 164 162 159 155 152 149 154 164 165 179 176 191 186 248 303 295 284 323 305 307 301 307 322 327 332 342 345 346 346 345 344 343 342
166 162 156 156 159 157 156 160 164 163 167 167 177 190 194 183 166 172 199 318 297 325 349 297 285 283 285 289 318 331 341 344 345 345 345 345 344 343
166 161 158 157 151 147 151 156 168 178 176 169 179 188 180 177 167 180 201 222 248 282 345 287 280 278 284 305 317 328 341 344 345 346 346 345 345 344
166 165 161 160 162 154 149 152 159 172 178 175 168 164 160 153 159 170 187 243 273 258 204 267 288 283 296 300 304 327 341 344 346 347 346 345 345 345
157 160 162 163 169 164 157 160 165 177 188 179 171 172 174 170 162 143 160 189 266 256 158 254 290 303 299 291 301 327 338 342 346 347 346 346 346 347
152 158 168 170 172 171 167 168 178 180 166 168 176 184 179 189 193 181 177 185 209 252 189 202 289 334 315 296 301 310 325 337 343 345 346 346 348 347
166 170 179 181 181 181 177 178 182 162 164 169 172 173 176 187 194 190 190 194 200 225 187 147 224 266 265 296 299 292 318 326 334 339 343 344 348 350
174 171 178 183 185 185 181 181 177 163 158 171 184 196 199 202 199 193 196 208 217 223 194 164 194 200 233 276 285 300 308 307 326 334 335 338 343 347
163 169 176 184 184 185 188 184 174 171 176 192 206 210 202 189 172 172 185 205 238 239 214 195 198 207 203 232 270 292 311 306 322 334 332 333 332 338
148 160 175 182 181 175 180 189 186 188 195 206 210 199 170 168 177 175 184 187 223 249 220 203 203 205 226 239 247 270 278 292 316 327 326 322 325 333
145 144 159 169 182 187 191 193 194 198 207 210 204 195 188 189 192 181 183 186 208 218 214 209 213 226 231 229 251 255 265 277 294 323 326 320 318 329
163 177 187 192 196 197 198 200 203 209 211 209 209 205 201 201 199 190 190 199 216 222 213 191 170 335 322 272 227 241 257 265 294 312 312 311 310 319
192 195 200 202 204 201 202 205 210 208 203 206 211 210 206 204 203 203 203 209 220 222 212 185 171 165 199 269 280 217 217 260 294 299 293 288 291 307
206 209 211 208 207 208 208 211 211 202 202 207 209 209 206 206 209 212 209 211 214 213 210 199 195 192 199 214 245 272 253 233 242 286 293 295 287 302
210 215 216 213 212 214 214 212 211 208 205 205 208 208 207 208 214 215 214 212 209 208 214 216 203 174 142 113 263 271 264 250 258 251 271 304 311 319
220 223 223 221 220 220 216 212 212 212 209 210 211 209 208 210 215 214 212 210 211 212 213 190 147 148 167 200 228 246 269 289 293 290 277 245 226 274
229 227 225 224 224 222 218 218 218 220 217 214 213 211 208 211 213 214 214 212 209 206 195 178 173 184 200 207 223 239 253 274 285 299 293 284 277 279